Location: Arthez
(43.0833°N, 0.2500°W)
Time: 22:23:29
(UTC+00:00)

deb Kosmos-970 - Pass Details

Date: 17 August 2022
Orbit: 900 x 1112 km, 65.8° (Epoch: 28 September)

Event Time Altitude Azimuth Distance (km) Brightness Sun altitude
Rises 20:25:30 0° 316° (NW) 3,939 ? -14.6°
Reaches altitude 10° 20:31:21 10° 353° (N) 2,986 ? -15.5°
Maximum altitude 20:32:47 11° 5° (N) 2,939 ? -15.7°
Drops below altitude 10° 20:34:12 10° 17° (NNE) 2,981 ? -15.9°
Sets 20:40:00 0° 54° (NE) 3,909 ? -16.8°
